Regional Weather Roundup
Issued by NWS Grand Forks, ND

Home | Current Version | Previous Version | Graphics & Text | Print | Product List | Glossary On
Versions: 1 2 3 4 5 6 7 8 9 10 11 12 13 14 15 16 17 18 19 20 21 22 23 24 25 26 27 28 29 30 31 32 33 34 35 36 37 38 39 40 41 42 43 44 45 46 47 48 49 50
000
ASUS43 KFGF 221831
RWRFGF
PRAIRIE TO PINES  WEATHER ROUNDUP
NATIONAL WEATHER SERVICE EASTERN NORTH DAKOTA/GRAND FORKS ND
1200 PM CST MON DEC 22 2014

 **SATELLITE DATA USED TO AUGMENT SKY COVER AT AUTOMATED STATIONS**
 *****  WEATHER ACROSS EASTERN NORTH DAKOTA  *****

CITY           SKY/WX    TMP DP  RH WIND       PRES   REMARKS
GRAND FORKS    CLOUDY    36  36 100 E8        29.53S FOG
6HR MIN TEMP:  34; 6HR MAX TEMP:  36; 6HR PCP:  0.01;

GRAND FRKS AFB NOT AVBL
DEVILS LAKE    CLOUDY    34  32  93 NE9       29.51S
6HR MIN TEMP:  30; 6HR MAX TEMP:  41;

FARGO          LGT RAIN  40  38  93 SE9       29.50S FOG
WAHPETON ARPT  CLOUDY    36  34  93 SE9       29.49S
$$

 ***** WEATHER ACROSS CENTRAL AND WESTERN NORTH DAKOTA  *****

CITY           SKY/WX    TMP DP  RH WIND       PRES   REMARKS
BISMARCK       CLOUDY    29  27  92 N6        29.50S WCI  23
6HR MIN TEMP:  28; 6HR MAX TEMP:  29;

MINOT          CLOUDY    29  26  89 N8        29.55R WCI  21
6HR MIN TEMP:  28; 6HR MAX TEMP:  29;

JAMESTOWN      FOG       33  32  96 NE7       29.46S VSB 1/4
6HR MIN TEMP:  32; 6HR MAX TEMP:  33;

MINOT AFB      NOT AVBL
GARRISON         N/A     30  28  92 N6        29.52S WCI  24
WILLISTON      CLOUDY    26  22  84 N14       29.62R WCI  14
6HR MIN TEMP:  26; 6HR MAX TEMP:  29;

DICKINSON      SNOW      27  23  85 NW20      29.51S VSB 1/2 WCI  13
6HR MIN TEMP:  26; 6HR MAX TEMP:  32; 6HR PCP: TRACE;

HETTINGER      LGT SNOW  27  24  89 NW20G32   29.52S VSB 3/4 WCI  13
6HR MIN TEMP:  28; 6HR MAX TEMP:  34; 6HR PCP: TRACE;

$$

 *****  OTHER AIRPORT OBSERVATIONS IN OUR AREA  *****

CITY           SKY/WX    TMP DP  RH WIND       PRES   REMARKS
WALHALLA       NOT AVBL
GRAFTON AIRPOR NOT AVBL
VALLEY CITY AR LGT RAIN  34  34 100 E7        29.47S VSB<1/4
CANDO          CLOUDY    32  32 100 NE7       29.54S FOG
CAVALIER APRT  FOG       34  34 100 E7        29.58  VSB 3/4
GWINNER        CLOUDY    37  37 100 E12       29.46S
ROLLA          CLOUDY    30  30 100 N12       29.56S FOG     WCI  21
 ***** THE ABOVE OBSERVATIONS ARE NON NWS ARE NOT QUALITY
       CONTROLLED AND MAY MIS-REPORT RAIN FOR SNOW...
$$

  *****  WEATHER ACROSS NORTHERN MINNESOTA  *****

CITY           SKY/WX    TMP DP  RH WIND       PRES   REMARKS
FLAG ISLAND    CLOUDY    34  34 100 E7        29.62S
WARROAD        CLOUDY    34  30  86 E6        29.61S FOG
ROSEAU         CLOUDY    36  30  80 E7        29.59F FOG
HALLOCK        PTSUNNY   36  34  93 E8        29.58S FOG
THF RVR FALLS  CLOUDY    36  34  93 E9        29.55S
6HR MIN TEMP:  34; 6HR MAX TEMP:  36;

BAUDETTE       CLOUDY    34  33  96 SE8       29.61S
6HR MIN TEMP:  33; 6HR MAX TEMP:  35;

WASKISH        CLOUDY    36  36 100 E8        29.60S
CROOKSTON      MIX PCPN  37  36  93 E9        29.55S
STEPHEN NDAWN    N/A     36  34  93 E6          N/A
GREENBUSH NDAW   N/A     34  34 100 E7          N/A
$$
  *****  WEATHER ACROSS CENTRAL AND WEST MINNESOTA  *****

CITY           SKY/WX    TMP DP  RH WIND       PRES   REMARKS
FOSSTON        DRIZZLE   34  34 100 E7        29.54F
BEMIDJI        CLOUDY    35  34  98 SE10      29.56F FOG
PARK RAPIDS    CLOUDY    37  35  92 SE12      29.55S FOG
6HR MIN TEMP:  36; 6HR MAX TEMP:  37;

ELBOW LAKE     CLOUDY    37  37 100 SE13G18   29.49F FOG
6HR MIN TEMP:  35; 6HR MAX TEMP:  37;

WADENA         CLOUDY    34  34 100 SE10      29.53F FOG
DETROIT LAKES  LGT RAIN  36  36 100 SE12      29.52F
MOORHEAD       LGT RAIN  39  39 100 SE9       29.51S
FERGUS FALLS   CLOUDY    37  37 100 SE12      29.52F FOG
MORRIS MN      LGT RAIN  37  37 100 SE16      29.47F
STAPLES        LGT RAIN  36  36 100 SE8       29.55F
$$
  *****  WEATHER ELSEWHERE ACROSS MINNESOTA  *****

CITY           SKY/WX    TMP DP  RH WIND       PRES   REMARKS
DULUTH         FOG       33  32  96 SE13      29.66F VSB 1/8 WCI  24
6HR MIN TEMP:  33; 6HR MAX TEMP:  34; 6HR PCP:  0.07;

INTRNTL FALLS  LGT RAIN  34  32  92 SE7       29.64F
6HR MIN TEMP:  33; 6HR MAX TEMP:  34; 6HR PCP:  0.04;

ELY            CLOUDY    34  34 100 SE6       29.67F
CLOQUET        LGT RAIN  34  34 100 SE7       29.65F VSB 1/2
WHEATON        LGT RAIN  36  36 100 SE17      29.48F
BRAINERD       LGT RAIN  35  34  96 SE9       29.59F FOG
6HR MIN TEMP:  35; 6HR MAX TEMP:  36; 6HR PCP: TRACE;

HIBBING        LGT SNOW  34  31  88 SE9       29.64F FOG
6HR MIN TEMP:  34; 6HR MAX TEMP:  35; 6HR PCP:  0.04;

ALEXANDRIA     MIX PCPN  36  35  96 SE15G24   29.52F FOG
6HR MIN TEMP:  36; 6HR MAX TEMP:  37;

SAINT CLOUD    LGT RAIN  38  34  85 SE10      29.58F FOG
6HR MIN TEMP:  38; 6HR MAX TEMP:  39; 6HR PCP:  0.04;

MINNEAPOLIS    LGT RAIN  36  33  89 SE13      29.62F FOG
6HR MIN TEMP:  36; 6HR MAX TEMP:  37; 6HR PCP:  0.03;

$$

  *****  WEATHER ACROSS SOUTH DAKOTA  *****

CITY           SKY/WX    TMP DP  RH WIND       PRES   REMARKS
SIOUX FALLS    LGT RAIN  38  37  97 W5        29.42F FOG
6HR MIN TEMP:  38; 6HR MAX TEMP:  41; 6HR PCP:  0.09;

BROOKINGS      NOT AVBL
WATERTOWN      LGT RAIN  38  37  97 SE9       29.39F
6HR MIN TEMP:  36; 6HR MAX TEMP:  38; 6HR PCP:  0.01;

HURON          CLOUDY    33  30  88 NW8       29.42F
6HR MIN TEMP:  29; 6HR MAX TEMP:  33;

SISSETON         N/A     37  37 100 SE13      29.44F
ABERDEEN       CLOUDY    34  33  96 NE3       29.41F FOG
6HR MIN TEMP:  33; 6HR MAX TEMP:  34; 6HR PCP:  0.03;

MITCHELL       CLOUDY    37  35  92 W6        29.43F FOG
PIERRE         CLOUDY    37  32  82 NW23G29   29.45F
6HR MIN TEMP:  36; 6HR MAX TEMP:  38; 6HR PCP: TRACE;

MOBRIDGE       LGT SNOW  32  30  92 N13       29.42S FOG     WCI  22
RAPID CITY     PTSUNNY   45  19  35 NW37G51   29.50F
6HR MIN TEMP:  40; 6HR MAX TEMP:  45;

$$

  *****  SOME WEATHER IN NEARBY STATES *****

CITY           SKY/WX    TMP DP  RH WIND       PRES   REMARKS
GLASGOW MT     CLOUDY    31  26  82 NW16      29.70R WCI  20
6HR MIN TEMP:  30; 6HR MAX TEMP:  32;

GREAT FALLS MT CLOUDY    37  24  59 W15       29.85R
6HR MIN TEMP:  28; 6HR MAX TEMP:  37;

CHEYENNE WY    CLOUDY    30  18  60 NW17G32   29.68F WCI  18
6HR MIN TEMP:  24; 6HR MAX TEMP:  31;

SCOTTSBLUFF NE MOSUNNY   38  25  59 W18       29.66F
6HR MIN TEMP:  31; 6HR MAX TEMP:  38;

OMAHA NE       LGT RAIN  42  41  96 SE13      29.47F FOG
6HR MIN TEMP:  42; 6HR MAX TEMP:  43; 6HR PCP:  0.25;

DES MOINES IA  LGT RAIN  41  38  89 SE9       29.54F FOG
6HR MIN TEMP:  40; 6HR MAX TEMP:  41; 6HR PCP:  0.12;

DAVENPORT IA   LGT RAIN  36  33  89 E13       29.64F FOG
6HR MIN TEMP:  35; 6HR MAX TEMP:  37; 6HR PCP:  0.02;

CHICAGO IL     LGT RAIN  35  32  88 E9        29.78F FOG
6HR MIN TEMP:  31; 6HR MAX TEMP:  36; 6HR PCP:  0.01;

EAU CLAIRE WI  CLOUDY    37  32  82 SE9       29.69F HAZE
6HR MIN TEMP:  35; 6HR MAX TEMP:  37;

LA CROSSE WI   CLOUDY    41  32  70 SE12      29.70F
6HR MIN TEMP:  37; 6HR MAX TEMP:  41;

$$

  *****  SOME NATIONAL WEATHER *****

CITY           SKY/WX    TMP DP  RH WIND       PRES   REMARKS
LA GUARDIA NY  CLOUDY    42  36  79 NE15      30.27S
6HR MIN TEMP:  36; 6HR MAX TEMP:  42;

RALEIGH NC     DRIZZLE   37  34  89 N8        30.11F FOG
6HR MIN TEMP:  36; 6HR MAX TEMP:  38; 6HR PCP:  0.03;

ATLANTA GA     DRZL/FOG  46  44  93 E12       29.95F VSB 1/2
6HR MIN TEMP:  45; 6HR MAX TEMP:  46; 6HR PCP: TRACE;

NEW ORLEANS LA PTSUNNY   72  66  81 S13       29.76F
6HR MIN TEMP:  58; 6HR MAX TEMP:  73; 6HR PCP:  0.21;

OKLAHOMA CITY  PTSUNNY   51  42  71 N10       29.57F
6HR MIN TEMP:  48; 6HR MAX TEMP:  53;

ALBUQUERQUE NM MOSUNNY   53  33  46 SW7       29.87F
6HR MIN TEMP:  33; 6HR MAX TEMP:  53;

SALT LAKE CITY CLOUDY    41  37  86 N3        29.96F
6HR MIN TEMP:  38; 6HR MAX TEMP:  41; 6HR PCP:  0.22;

LOS ANGELES CA MOSUNNY   62  51  67 SE3       30.06S
6HR MIN TEMP:  50; 6HR MAX TEMP:  62;




USA.gov is the U.S. government's official web portal to all federal, state and local government web resources and services.